• In Uzbekistan
  • List of Countries
  • For 7 days
  • Water Temperature
  • Satellite Maps
  • Weather Map
  • Weather Widgets
  • user-avatar
    Login

    Hourly Weather Lanzhou

    Today, 21 January, Monday

    Time Temperature Precipitation Wind Pressure Humidity
    00:00 -7°C° 0 mm 1 mps 627 mmHg 71%
    01:00 -7°C° 0 mm 1 mps 626 mmHg 73%
    02:00 -8°C° 0 mm 1 mps 626 mmHg 74%
    03:00 -8°C° 0 mm 1 mps 625 mmHg 75%
    04:00 -8°C° 0 mm 1 mps 625 mmHg 77%
    05:00 -8°C° 0 mm 1 mps 625 mmHg 74%
    06:00 -8°C° 0 mm 1 mps 625 mmHg 72%
    07:00 -9°C° 0 mm 2 mps 625 mmHg 66%
    08:00 -8°C° 0 mm 2 mps 625 mmHg 55%
    09:00 -7°C° 0 mm 2 mps 625 mmHg 45%
    10:00 -6°C° 0 mm 2 mps 626 mmHg 35%
    11:00 -4°C° 0 mm 2 mps 625 mmHg 28%
    12:00 -3°C° 0 mm 2 mps 625 mmHg 22%
    13:00 -2°C° 0 mm 2 mps 624 mmHg 15%
    14:00 -1°C° 0 mm 2 mps 624 mmHg 15%
    15:00 -1°C° 0 mm 2 mps 624 mmHg 14%
    16:00 -1°C° 0 mm 2 mps 624 mmHg 14%
    17:00 -1°C° 0 mm 2 mps 624 mmHg 15%
    18:00 -2°C° 0 mm 2 mps 623 mmHg 17%
    19:00 -3°C° 0 mm 2 mps 623 mmHg 18%
    20:00 -4°C° 0 mm 2 mps 623 mmHg 20%
    21:00 -4°C° 0 mm 2 mps 623 mmHg 22%
    22:00 -4°C° 0 mm 2 mps 623 mmHg 24%
    23:00 -4°C° 0 mm 2 mps 623 mmHg 26%

    Tomorrow, 22 January, Tuesday

    Time Temperature Precipitation Wind Pressure Humidity
    00:00 -5°C° 0 mm 2 mps 623 mmHg 27%
    01:00 -5°C° 0 mm 2 mps 622 mmHg 28%
    02:00 -5°C° 0 mm 2 mps 622 mmHg 29%
    03:00 -6°C° 0 mm 2 mps 622 mmHg 29%
    04:00 -6°C° 0 mm 2 mps 622 mmHg 29%
    05:00 -6°C° 0 mm 2 mps 621 mmHg 29%
    06:00 -7°C° 0 mm 2 mps 621 mmHg 29%
    07:00 -7°C° 0 mm 2 mps 621 mmHg 28%
    08:00 -5°C° 0 mm 2 mps 621 mmHg 25%
    09:00 -4°C° 0 mm 2 mps 622 mmHg 22%
    10:00 -2°C° 0 mm 2 mps 622 mmHg 18%
    11:00 +1°C° 0 mm 1 mps 622 mmHg 15%
    12:00 +2°C° 0 mm 1 mps 621 mmHg 13%
    13:00 +4°C° 0 mm 1 mps 620 mmHg 10%
    14:00 +4°C° 0 mm 1 mps 620 mmHg 11%
    15:00 +3°C° 0 mm 0 mps 620 mmHg 12%
    16:00 +2°C° 0 mm 0 mps 619 mmHg 13%
    17:00 +1°C° 0 mm 0 mps 619 mmHg 13%
    18:00 0°C° 0 mm 0 mps 619 mmHg 12%
    19:00 0°C° 0 mm 1 mps 619 mmHg 12%
    20:00 0°C° 0 mm 1 mps 619 mmHg 12%
    21:00 -1°C° 0 mm 1 mps 619 mmHg 12%
    22:00 -1°C° 0 mm 1 mps 619 mmHg 12%
    23:00 -1°C° 0 mm 1 mps 619 mmHg 13%

    Day after tomorrow, 23 January, Wednesday

    Time Temperature Precipitation Wind Pressure Humidity
    00:00 -1°C° 0 mm 1 mps 618 mmHg 14%
    01:00 -1°C° 0 mm 1 mps 618 mmHg 15%
    02:00 -2°C° 0 mm 1 mps 618 mmHg 17%
    03:00 -2°C° 0 mm 1 mps 618 mmHg 19%
    04:00 -2°C° 0 mm 1 mps 617 mmHg 21%
    05:00 -2°C° 0 mm 1 mps 617 mmHg 23%
    06:00 -2°C° 0 mm 1 mps 617 mmHg 25%
    07:00 -2°C° 0 mm 1 mps 617 mmHg 28%
    08:00 -1°C° 0 mm 1 mps 618 mmHg 27%
    09:00 +1°C° 0 mm 1 mps 618 mmHg 26%
    10:00 +3°C° 0 mm 1 mps 619 mmHg 25%
    11:00 +4°C° 0 mm 1 mps 618 mmHg 24%
    12:00 +5°C° 0 mm 1 mps 617 mmHg 22%
    13:00 +5°C° 0 mm 0 mps 616 mmHg 21%
    14:00 +6°C° 0 mm 1 mps 616 mmHg 22%
    15:00 +6°C° 0 mm 1 mps 616 mmHg 23%
    16:00 +6°C° 0 mm 1 mps 615 mmHg 25%
    17:00 +5°C° 0 mm 1 mps 615 mmHg 27%
    18:00 +3°C° 0 mm 1 mps 615 mmHg 28%
    19:00 +1°C° 0 mm 2 mps 615 mmHg 30%
    20:00 +2°C° 0 mm 1 mps 616 mmHg 32%
    21:00 +1°C° 0 mm 1 mps 616 mmHg 33%
    22:00 +1°C° 0 mm 1 mps 616 mmHg 34%
    23:00 +1°C° 0 mm 1 mps 616 mmHg 35%

    24 January, Thursday

    Time Temperature Precipitation Wind Pressure Humidity
    00:00 +1°C° 0 mm 1 mps 616 mmHg 36%
    01:00 0°C° 0 mm 1 mps 616 mmHg 37%
    02:00 0°C° 0 mm 1 mps 616 mmHg 37%
    03:00 -1°C° 0 mm 1 mps 616 mmHg 37%
    04:00 -1°C° 0 mm 1 mps 616 mmHg 37%
    05:00 -1°C° 0 mm 1 mps 616 mmHg 37%
    06:00 -1°C° 0 mm 1 mps 617 mmHg 37%
    07:00 -2°C° 0 mm 1 mps 617 mmHg 37%
    08:00 -3°C° 0 mm 2 mps 618 mmHg 33%
    09:00 -2°C° 0 mm 2 mps 618 mmHg 29%
    10:00 -1°C° 0 mm 2 mps 619 mmHg 25%
    11:00 -1°C° 0 mm 2 mps 619 mmHg 24%
    12:00 0°C° 0 mm 3 mps 619 mmHg 23%
    13:00 +1°C° 0 mm 3 mps 618 mmHg 21%
    14:00 +1°C° 0 mm 3 mps 618 mmHg 21%
    15:00 +1°C° 0 mm 3 mps 618 mmHg 22%
    16:00 +1°C° 0 mm 3 mps 619 mmHg 22%
    17:00 0°C° 0 mm 3 mps 619 mmHg 23%
    18:00 -2°C° 0 mm 2 mps 620 mmHg 23%
    19:00 -3°C° 0 mm 2 mps 620 mmHg 24%
    20:00 -3°C° 0 mm 2 mps 621 mmHg 24%
    21:00 -1°C° 0 mm 1 mps 621 mmHg 24%
    22:00 -1°C° 0 mm 1 mps 622 mmHg 23%
    23:00 -2°C° 0 mm 1 mps 621 mmHg 24%

    25 January, Friday

    Time Temperature Precipitation Wind Pressure Humidity
    00:00 -2°C° 0 mm 1 mps 621 mmHg 24%
    01:00 -2°C° 0 mm 1 mps 621 mmHg 25%
    02:00 -2°C° 0 mm 1 mps 621 mmHg 25%
    03:00 -3°C° 0 mm 1 mps 621 mmHg 26%
    04:00 -3°C° 0 mm 1 mps 620 mmHg 26%
    05:00 -3°C° 0 mm 1 mps 620 mmHg 27%
    06:00 -3°C° 0 mm 1 mps 621 mmHg 27%
    07:00 -3°C° 0 mm 1 mps 621 mmHg 28%
    08:00 -2°C° 0 mm 1 mps 622 mmHg 27%
    09:00 -1°C° 0 mm 1 mps 622 mmHg 26%
    10:00 -3°C° 0 mm 2 mps 623 mmHg 24%
    11:00 -2°C° 0 mm 2 mps 622 mmHg 25%
    12:00 -1°C° 0 mm 2 mps 622 mmHg 25%
    13:00 +1°C° 0 mm 2 mps 621 mmHg 25%
    14:00 +1°C° 0 mm 2 mps 621 mmHg 26%
    15:00 0°C° 0 mm 3 mps 621 mmHg 27%
    16:00 0°C° 0 mm 3 mps 621 mmHg 28%
    17:00 -1°C° 0 mm 3 mps 622 mmHg 29%
    18:00 -2°C° 0 mm 2 mps 622 mmHg 29%
    19:00 -3°C° 0 mm 2 mps 623 mmHg 30%
    20:00 -3°C° 0 mm 2 mps 623 mmHg 30%
    21:00 -1°C° 0 mm 1 mps 623 mmHg 29%
    22:00 -2°C° 0 mm 1 mps 624 mmHg 29%
    23:00 -2°C° 0 mm 1 mps 623 mmHg 29%

    26 January, Saturday

    Time Temperature Precipitation Wind Pressure Humidity
    00:00 -2°C° 0 mm 1 mps 623 mmHg 30%
    01:00 -2°C° 0 mm 1 mps 623 mmHg 30%
    02:00 -3°C° 0 mm 1 mps 622 mmHg 31%
    03:00 -3°C° 0 mm 1 mps 622 mmHg 31%
    04:00 -3°C° 0 mm 1 mps 622 mmHg 32%
    05:00 -3°C° 0 mm 1 mps 622 mmHg 33%
    06:00 -4°C° 0 mm 1 mps 622 mmHg 33%
    07:00 -4°C° 0 mm 1 mps 622 mmHg 34%
    08:00 -3°C° 0 mm 1 mps 622 mmHg 33%
    09:00 -2°C° 0 mm 1 mps 623 mmHg 31%
    10:00 -1°C° 0 mm 1 mps 623 mmHg 30%
    11:00 -2°C° 0 mm 2 mps 622 mmHg 30%
    12:00 -1°C° 0 mm 2 mps 622 mmHg 29%
    13:00 +1°C° 0 mm 2 mps 621 mmHg 29%
    14:00 +1°C° 0 mm 2 mps 621 mmHg 30%
    15:00 0°C° 0 mm 3 mps 621 mmHg 31%
    16:00 0°C° 0 mm 3 mps 621 mmHg 31%
    17:00 -1°C° 0 mm 3 mps 622 mmHg 32%
    18:00 -2°C° 0 mm 2 mps 622 mmHg 33%
    19:00 -3°C° 0 mm 2 mps 623 mmHg 35%
    20:00 -3°C° 0 mm 2 mps 623 mmHg 34%
    21:00 -3°C° 0 mm 2 mps 623 mmHg 33%
    22:00 -3°C° 0 mm 2 mps 624 mmHg 32%
    23:00 -2°C° 0 mm 1 mps 624 mmHg 32%
    Show more